Home   Weather   Santa Rosa   Past weeks
Flag for USA

Past Weather in Santa Rosa, California, USA — Yesterday and Last 2 Weeks

Now
57 °F

Partly sunny.


Feels Like: 57 °F
Forecast: 67 / 47 °F
Wind: 3 mph from West

Location: Santa Rosa Sonoma County Airport

Current Time: May 26, 2019 at 8:28:53 pm

Latest Report: May 26, 2019 at 6:53 pm


Visibility: 10 mi

Pressure: 29.87 "Hg

Humidity: 81%

Dew Point: 51 °F

Location of Santa RosaLocation

Past Weather in Santa Rosa — Graph

°F

Santa Rosa Temperature Yesterday

Maximum temperature yesterday: 71 °F (at 1:53 pm)
Minimum temperature yesterday: 49 °F (at 5:53 am)
Average temperature yesterday: 57 °F

High & Low Weather Summary for the Past Weeks

 TemperatureHumidityPressure
High76 °F (May 22, 2:53 pm)100% (May 13, 5:53 am)30.10 "Hg (May 13, 5:53 am)
Low43 °F (May 13, 5:53 am)40% (May 22, 1:53 pm)29.59 "Hg (May 15, 8:53 pm)
Average55 °F83%29.87 "Hg
* Reported May 11 6:53 pm — May 26 6:53 pm, Santa Rosa. Weather by CustomWeather, © 2019

Note: Actual official high and low records may vary slightly from our data, if they occured in-between our weather recording intervals... More about our weather records

Advertising

Santa Rosa Weather History for the Previous 24 Hours

Scroll right to see more
 ConditionsComfort  
Time TempWeatherWind HumidityBarometerVisibility
6:53 pm
Sun, May 26
57 °FPartly sunny.3 mph81%29.87 "Hg10 mi
5:53 pm59 °FPartly sunny.No wind72%29.85 "Hg10 mi
4:53 pm59 °FCloudy.No wind67%29.84 "Hg10 mi
3:53 pm58 °FLight rain. Partly sunny.No wind81%29.83 "Hg10 mi
2:53 pm61 °FPartly sunny.8 mph62%29.81 "Hg10 mi
1:53 pm59 °FMostly cloudy.13 mph67%29.80 "Hg10 mi
12:53 pm54 °FLight rain. Cloudy.7 mph80%29.80 "Hg8 mi
11:53 am56 °FLight rain. Mostly cloudy.13 mph70%29.78 "Hg10 mi
10:53 am56 °FMostly cloudy.9 mph60%29.76 "Hg10 mi
9:53 am56 °FMostly cloudy.9 mph62%29.75 "Hg10 mi
8:53 am54 °FOvercast.8 mph64%29.75 "Hg10 mi
7:53 am53 °FPartly sunny.8 mph66%29.73 "Hg10 mi
6:53 am51 °FPartly sunny.8 mph71%29.72 "Hg10 mi
5:53 am51 °FPartly sunny.14 mph74%29.69 "Hg10 mi
4:53 am53 °FMostly cloudy.9 mph72%29.69 "Hg10 mi
3:53 am53 °FOvercast.9 mph72%29.69 "Hg10 mi
2:53 am54 °FPassing clouds.14 mph64%29.69 "Hg10 mi
1:53 am55 °FPassing clouds.10 mph67%29.68 "Hg10 mi
12:53 am53 °FMostly cloudy.3 mph89%29.70 "Hg8 mi
11:53 pm
Sat, May 25
53 °FOvercast.3 mph89%29.70 "Hg8 mi
10:53 pm54 °FOvercast.6 mph83%29.71 "Hg8 mi
9:53 pm54 °FClear.5 mph83%29.72 "Hg8 mi
8:53 pm55 °FClear.7 mph83%29.72 "Hg9 mi
Weather by CustomWeather, © 2019

See weather overview